RH
83 82 81 81 81 80 78 77 75 74 74 75 73 72 72 72 73 56 52 38 44 44 45 35 23 31 31 38 40 45 56 62 39 37 34 34 38 38 43 44 43 42 44 40 39
87 84 84 84 83 83 82 81 80 78 77 76 75 73 76 77 78 62 35 36 38 41 40 35 25 24 32 40 44 48 51 33 29 30 34 36 37 38 42 43 48 47 42 39 38
91 90 89 88 86 84 84 84 83 82 81 79 77 74 79 78 56 29 31 32 33 37 39 39 28 29 38 40 40 46 43 37 28 31 36 40 38 42 44 47 41 47 45 39 39
86 92 92 91 90 89 86 86 85 84 83 82 80 77 80 74 62 21 26 26 30 34 37 27 28 36 41 39 34 42 33 32 32 36 36 39 45 45 47 42 42 44 41 36 35
80 84 86 91 93 91 91 90 86 86 85 84 82 77 65 52 42 15 23 20 18 22 25 28 34 36 34 33 27 35 32 31 34 38 38 39 45 47 50 44 43 38 35 38 37
77 80 83 84 84 93 93 92 90 89 89 86 82 75 66 62 19 16 16 18 19 22 29 32 38 35 37 38 38 38 36 35 32 33 38 42 46 47 45 48 45 42 41 38 43
78 79 80 83 84 83 87 93 91 91 91 86 75 63 60 51 15 16 21 20 21 24 32 35 41 39 41 44 44 39 50 52 49 46 45 45 52 55 47 44 50 49 46 43 46
78 78 82 85 84 85 84 83 89 92 92 86 60 64 60 26 18 15 25 28 24 26 31 40 43 54 43 45 59 48 52 74 60 48 60 43 63 49 55 51 57 52 53 48 52
77 82 82 84 87 86 88 87 88 89 88 66 67 66 50 30 19 20 28 28 27 34 37 27 40 52 51 71 87 84 91 78 52 49 66 52 49 56 58 57 62 62 58 58 64
80 80 89 82 84 87 89 90 86 89 69 47 47 62 43 29 26 24 24 24 32 44 50 51 52 66 62 83 91 93 85 72 68 47 65 76 72 59 60 64 69 70 72 82 79
78 77 88 89 89 90 93 94 88 81 62 53 54 45 43 21 19 21 23 26 35 50 82 63 65 74 58 61 69 74 55 62 61 41 49 59 60 56 51 52 75 74 72 78 77
82 85 86 89 91 91 86 82 68 66 88 67 65 56 22 19 32 29 25 30 50 50 53 66 76 54 48 55 66 63 41 42 32 42 44 48 48 65 52 70 81 79 68 75 74
84 85 86 88 91 82 73 78 74 76 89 80 38 24 21 19 24 29 24 28 30 33 36 50 41 35 26 35 40 41 42 41 38 41 41 53 72 90 70 68 48 54 61 80 84
83 83 85 89 90 82 82 92 91 91 92 80 41 26 20 24 32 28 24 29 32 33 26 31 29 30 34 32 34 40 44 45 43 47 70 52 89 78 79 80 40 47 60 81 81
83 83 84 84 96 97 97 96 91 95 94 43 29 21 26 41 68 53 33 33 45 41 36 49 33 36 35 32 29 34 46 47 49 69 76 76 91 74 75 76 60 50 60 76 83
84 85 83 92 95 93 92 97 94 92 97 66 47 50 74 73 66 53 42 34 37 44 43 40 33 36 35 36 37 41 54 58 64 82 97 86 88 84 87 64 55 60 68 71 81
85 87 85 90 98 95 96 92 94 96 70 85 79 69 70 71 72 66 81 78 77 83 89 62 39 39 37 47 48 52 81 91 83 99 85 84 77 85 69 64 77 79 81 78 84
87 89 85 87 92 95 95 87 97 62 87 73 67 68 71 52 66 53 59 81 71 74 92 91 80 44 39 56 58 50 75 87 62 85 64 63 82 69 50 61 81 86 86 76 83
86 98 95 91 90 95 95 95 88 82 69 66 61 88 84 63 70 74 78 73 61 86 90 97 85 42 40 39 37 59 78 68 76 83 74 59 59 54 47 31 53 77 84 85 87
97 97 95 87 90 98 96 91 90 73 76 76 86 92 80 77 80 91 93 76 68 76 72 97 96 52 48 46 47 49 48 81 90 82 65 56 54 63 39 41 62 82 85 88 88
96 96 90 90 93 94 93 85 79 78 79 91 92 88 88 94 98 96 94 88 70 86 78 83 87 71 56 58 56 52 83 64 70 85 85 80 56 81 60 72 82 89 87 93 93
96 99 87 93 94 100 94 85 77 72 82 92 90 88 97 99 93 98 98 95 90 88 86 72 96 100 78 55 49 50 50 59 82 73 92 92 57 85 76 86 98 90 90 92 92
96 96 90 90 98 97 84 83 77 83 92 100 100 98 100 96 96 98 90 85 86 97 95 79 93 95 83 86 55 48 46 61 78 84 77 75 49 72 82 87 89 95 93 92 94
98 97 97 99 98 90 94 80 90 93 96 96 97 96 99 94 93 96 90 92 83 92 97 92 98 94 96 94 85 78 78 56 60 76 78 80 65 56 55 80 84 92 95 93 96
99 95 81 91 96 95 99 87 74 95 100 92 98 99 99 99 94 96 92 96 92 86 100 97 98 97 84 94 97 95 91 78 72 58 60 70 72 67 74 80 92 99 93 94 94
99 96 95 98 87 94 93 94 77 93 98 98 97 94 97 98 95 98 99 98 97 98 99 98 93 97 93 87 93 86 77 67 68 58 56 83 67 66 86 92 86 92 94 95 95
97 89 88 91 98 95 96 88 87 91 92 85 97 98 95 92 99 97 98 100 99 98 98 97 98 97 95 72 82 86 75 72 84 86 64 59 51 74 76 58 89 92 93 97 96
Wind_Speed
11 12 12 11 10 10 10 11 11 12 13 14 16 17 18 17 16 3 2 3 4 8 7 5 3 2 1 2 3 3 3 4 5 2 3 2 1 3 1 4 2 3 4 5 9
14 12 13 13 11 11 11 11 11 12 13 14 16 17 17 16 4 3 2 4 6 5 3 4 4 4 0 2 1 4 4 8 3 1 2 2 2 4 2 3 2 5 5 5 6
16 14 13 12 13 12 12 11 12 12 13 14 15 17 17 12 4 3 4 4 4 3 0 1 3 2 2 3 4 4 6 4 3 3 2 1 1 4 5 5 7 8 9 7 5
18 16 14 13 13 13 13 12 12 12 13 13 14 16 18 1 4 3 5 4 4 3 3 3 2 1 3 4 4 3 7 4 3 3 4 3 1 3 7 5 5 6 9 6 6
18 18 18 16 14 14 13 13 11 13 14 14 13 13 6 3 8 3 3 4 4 2 2 2 2 1 3 2 4 4 3 5 1 4 5 3 7 6 6 4 7 7 7 7 6
18 19 18 18 18 17 14 12 13 12 11 12 13 6 1 5 1 3 2 3 2 2 5 4 1 3 4 3 1 4 4 7 6 6 5 5 4 5 5 7 8 8 7 6 7
19 19 19 19 18 16 14 15 14 12 10 11 10 1 2 11 1 0 1 1 1 1 1 2 1 3 2 6 3 3 6 7 6 6 5 2 5 9 4 9 8 7 6 4 7
18 19 19 20 20 18 16 15 13 13 9 10 2 1 7 1 1 2 1 3 2 1 3 3 2 1 2 5 5 3 2 4 5 3 2 3 6 3 4 9 8 7 6 4 4
20 20 21 21 18 17 16 16 15 12 9 4 2 2 8 2 1 2 1 0 3 1 0 2 3 1 3 2 3 3 4 5 7 2 3 3 6 3 5 6 7 7 6 3 6
19 21 21 18 14 15 15 16 10 6 2 2 2 2 3 2 2 2 0 1 0 2 1 2 5 3 3 3 3 4 4 5 5 2 2 3 13 6 6 6 8 6 2 5 7
16 18 18 18 16 15 6 4 3 2 1 6 2 3 1 0 1 1 1 1 0 2 3 1 2 5 9 8 3 2 4 7 5 4 4 7 12 10 9 7 6 5 5 6 8
15 17 18 15 15 14 4 3 4 2 7 5 7 5 2 2 1 1 0 1 2 3 2 1 7 8 5 3 5 4 5 7 7 1 1 5 12 7 7 3 5 7 2 5 9
13 15 17 15 13 4 4 4 6 5 3 5 2 2 2 1 3 6 4 3 5 4 5 7 4 4 4 3 4 4 5 4 5 6 5 4 7 4 3 6 8 4 3 3 8
12 14 18 16 1 4 4 6 5 2 2 4 2 1 1 1 3 3 1 1 2 3 3 6 2 3 3 4 5 3 1 2 4 5 2 4 7 3 3 2 4 4 5 7 10
10 14 16 6 1 4 4 6 4 1 5 2 2 2 2 1 4 0 2 2 3 2 3 5 3 4 4 3 2 6 0 2 1 1 4 2 2 4 4 4 4 6 8 9 9
10 12 11 4 2 1 5 5 1 4 7 1 1 1 3 1 2 2 2 1 1 2 2 7 1 0 2 1 0 3 2 1 1 2 1 3 3 3 2 5 5 5 8 11 12
10 9 4 1 1 4 4 1 4 4 3 2 1 1 0 3 3 4 1 2 1 4 4 4 2 1 1 0 2 4 4 4 5 0 5 2 1 6 2 2 4 7 11 13 12
10 8 4 1 1 3 2 4 3 5 2 2 1 3 4 4 2 3 2 3 3 3 1 1 4 2 1 1 3 1 4 4 3 3 5 1 6 4 2 4 1 6 9 10 13
9 2 2 2 0 1 4 2 8 3 3 6 8 1 1 1 1 5 1 1 4 2 1 1 5 2 3 1 2 1 1 1 1 2 2 3 3 2 3 5 7 9 9 12 14
1 1 3 4 1 2 4 5 3 3 5 4 2 2 3 4 5 4 3 3 2 5 1 1 5 1 2 1 2 2 3 2 1 2 5 4 3 3 4 9 9 11 11 12 14
2 2 3 3 1 3 3 5 2 4 5 3 2 2 2 2 1 3 4 1 3 2 2 3 2 5 1 4 4 2 0 1 0 2 4 4 5 5 7 6 9 10 9 10 13
3 0 3 1 4 1 3 3 2 3 4 2 1 1 2 2 3 3 3 1 2 1 3 1 3 5 6 1 1 1 1 2 3 4 1 3 7 2 6 5 2 10 7 11 11
3 2 3 2 4 2 3 2 3 2 2 2 1 1 1 3 3 3 2 3 3 3 4 1 2 4 5 4 2 3 3 4 3 2 5 5 6 1 4 5 2 7 8 10 12
3 1 2 3 2 5 3 3 1 3 3 3 1 2 1 3 4 3 4 3 5 4 6 2 2 5 4 1 2 1 2 5 4 3 3 7 4 4 7 5 8 4 4 8 10
3 4 5 2 2 2 1 1 4 2 1 2 2 3 1 3 3 4 2 2 5 3 4 3 4 3 8 11 8 6 8 7 7 6 5 5 4 7 7 3 7 4 8 7 11
6 4 3 2 5 5 2 3 4 2 4 3 3 1 3 3 3 4 3 3 3 2 4 3 4 2 5 8 9 13 15 10 9 4 7 2 10 6 4 2 5 5 7 7 10
2 3 6 5 3 4 5 4 5 5 1 2 2 1 5 5 4 5 4 6 3 2 4 4 2 2 4 5 3 6 9 11 4 2 7 5 6 5 1 0 3 4 6 6 9
Wind_Direction
296 301 306 308 309 316 323 327 328 329 331 333 334 334 333 331 324 311 220 203 282 312 331 301 7 330 75 262 167 89 78 237 254 233 304 311 98 31 112 107 48 51 126 149 133
290 290 292 293 300 307 308 313 321 324 327 330 331 330 328 335 311 283 221 280 295 317 11 16 340 359 278 221 191 114 154 221 230 176 211 288 193 176 146 149 223 69 49 112 118
301 279 277 283 289 291 296 302 309 316 320 324 328 328 327 335 324 228 239 277 292 13 163 293 283 262 239 135 203 185 212 221 234 182 173 226 267 198 164 230 206 182 171 162 145
347 325 275 271 274 279 285 289 298 306 311 319 328 332 327 23 312 210 238 279 308 4 331 326 329 243 235 221 215 217 238 233 250 195 174 204 220 199 198 227 173 154 157 157 161
346 344 356 330 288 273 276 281 293 304 311 320 325 331 351 311 255 213 265 343 351 354 311 298 56 351 256 301 307 230 285 298 268 214 238 202 229 227 231 188 150 148 152 159 149
343 340 340 339 334 309 264 273 289 291 295 312 316 339 179 261 143 164 359 3 26 34 14 42 131 234 267 261 270 326 290 277 278 247 243 211 253 152 270 162 168 166 179 178 155
346 340 335 330 322 321 325 287 277 283 288 301 313 226 262 244 247 226 359 232 233 97 85 50 84 33 346 302 349 293 304 301 251 248 220 142 271 233 213 163 167 192 206 173 164
346 339 334 326 317 311 309 307 297 283 288 299 333 145 250 258 255 294 3 344 1 39 108 155 57 159 178 316 329 275 287 334 298 116 265 160 273 258 172 152 186 208 226 170 190
345 342 331 319 310 304 303 298 289 283 292 286 101 169 270 318 227 192 142 240 281 251 164 122 52 93 11 66 353 320 280 268 304 151 139 189 274 248 189 182 204 218 229 229 346
353 344 343 341 331 313 297 286 288 318 324 159 269 351 280 267 193 168 261 127 22 84 47 68 47 52 24 87 238 233 268 259 243 306 222 235 263 253 239 227 225 220 245 14 325
352 345 342 350 339 332 330 350 26 32 186 207 150 258 29 236 44 96 131 41 48 32 206 191 50 226 227 204 212 233 252 255 259 258 236 233 260 266 248 233 214 189 57 337 315
345 340 341 339 333 332 320 49 63 281 311 298 272 223 106 310 187 358 19 10 152 239 153 14 234 227 223 183 202 255 276 279 286 192 230 273 274 279 257 201 149 113 47 321 325
343 340 334 327 325 353 73 58 332 352 261 296 326 87 240 339 204 230 160 160 219 255 206 198 247 143 190 198 208 239 219 252 260 322 252 323 286 323 341 96 106 125 56 306 271
343 339 335 319 334 317 66 319 331 329 322 275 240 330 345 22 271 54 295 232 212 259 282 237 243 207 222 243 147 266 159 313 318 10 275 49 283 259 210 301 139 40 335 316 319
341 340 345 29 260 56 309 313 310 248 5 331 284 260 351 161 325 161 335 11 235 249 49 265 201 216 237 231 161 228 243 252 235 236 6 216 121 264 110 289 240 326 336 319 305
325 344 350 24 67 164 294 291 137 54 260 236 261 299 6 96 277 294 284 340 258 303 226 242 324 279 206 119 23 339 335 61 90 102 320 236 186 266 192 214 292 296 316 313 315
311 333 357 344 216 321 310 30 51 173 259 127 7 333 306 262 276 203 275 296 136 27 340 312 200 321 145 243 28 61 47 335 360 259 237 273 217 248 246 101 218 297 308 317 311
305 297 299 201 237 346 43 68 157 259 19 196 215 290 229 7 245 307 233 307 54 75 68 316 307 196 89 133 179 144 130 156 268 319 293 213 242 268 137 142 257 266 274 298 313
330 352 295 283 175 10 88 76 201 216 332 354 336 359 168 52 196 16 353 42 42 84 181 342 271 124 66 122 146 196 115 142 114 238 296 236 273 356 212 278 344 321 330 323 323
64 342 265 299 8 101 85 232 208 35 348 24 192 33 305 350 3 356 309 340 105 36 50 255 295 206 136 101 47 132 127 61 14 294 280 286 274 232 285 297 318 327 322 323 323
68 36 256 346 66 59 193 218 163 103 73 35 326 316 238 279 298 287 269 45 42 309 345 152 103 287 41 208 167 97 277 141 193 166 191 296 269 206 223 249 276 303 309 311 317
122 352 294 23 62 63 214 207 133 54 85 80 252 301 276 298 273 247 276 248 59 120 170 169 162 258 240 88 68 75 215 159 159 260 156 163 277 268 220 238 199 290 324 308 314
163 224 310 86 139 216 275 238 184 173 108 84 269 194 76 267 268 244 257 134 186 212 194 312 240 326 344 12 46 219 195 136 123 84 217 141 265 243 261 294 301 284 336 321 322
130 43 336 28 178 145 208 181 192 49 89 97 16 7 265 250 237 280 287 196 201 227 186 146 258 218 221 189 102 241 216 190 159 134 213 232 292 273 274 299 311 336 314 314 327
177 204 177 211 254 112 65 163 189 180 189 131 182 230 263 279 314 254 262 269 196 247 182 168 237 219 256 257 255 243 249 193 188 203 178 261 210 249 273 247 275 323 321 343 350
144 151 37 190 125 136 145 204 214 204 158 171 199 203 216 244 249 307 320 228 267 152 185 182 276 239 273 251 238 249 245 223 220 228 260 192 285 193 255 184 337 329 331 345 352
195 92 117 167 130 131 203 186 204 158 295 156 163 113 266 279 317 317 306 296 293 257 212 173 262 293 267 2 339 276 233 198 180 188 154 197 229 139 162 52 334 326 337 340 335